Regional Weather Roundup
Issued by NWS

Home | Current Version | Previous Version | Graphics & Text | Print | Product List | Glossary On
Versions: 1 2 3 4 5 6 7 8 9 10 11 12 13 14 15 16 17 18 19 20 21 22 23 24 25 26 27 28 29 30 31 32 33 34 35 36 37 38 39 40 41 42 43 44 45 46 47 48 49 50
000
ASUS45 KABQ 051510
RWRNM
NEW MEXICO REGIONAL WEATHER ROUNDUP
NATIONAL WEATHER SERVICE ALBUQUERQUE NM
900 AM MDT SUN JUL 05 2015

NOTE: "FAIR" MEANS FEW OR NO CLOUDS BELOW 12,000 FEET AGL WITH NO
       SIGNIFICANT WEATHER OR OBSTRUCTIONS TO VISION.

      THIS PRODUCT IS RELEASED AS TWO VERSIONS.  ONE VERSION NEAR
      THE TOP OF THE HOUR CONTAINING PRELIMINARY DATA FROM ALBUQUERQUE
      AND OTHER STATIONS.  A FINAL VERSION WITH ADDITIONAL DATA IS
      ISSUED ABOUT 10 MINUTES AFTER THE HOUR.

NMZ501-503-504-510>518-051600-
NORTHWEST PLATEAU/NORTHCENTRAL MOUNTAINS

CITY           SKY/WX    TMP DP  RH WIND       PRES   REMARKS
FARMINGTON     MOSUNNY   68  59  73 CALM      30.17R
LOS ALAMOS     MOSUNNY   67  53  61 CALM      30.27S
SANTA FE       MOSUNNY   70  55  59 S5        30.20S
TAOS           MOSUNNY   66  46  48 CALM      30.26F
ANGEL FIRE     FAIR      60  55  81 NE3       30.33F

$$
NMZ402-403-502-505>509-051600-
WESTCENTRAL MOUNTAINS/SOUTHWEST MOUNTAINS

CITY           SKY/WX    TMP DP  RH WIND       PRES   REMARKS
GALLUP         CLOUDY    66  55  67 W5        30.25R
GRANTS         PTSUNNY   66  56  72 NW3       30.26S
SILVER CITY    LGT RAIN  68  63  83 NW8       30.21R

$$
NMZ407-409-411-412-051600-
SOUTHERN DESERTS

CITY           SKY/WX    TMP DP  RH WIND       PRES   REMARKS
LORDSBURG      FAIR      73  61  64 NW7       30.13R
DEMING         CLOUDY    72  65  78 SW9       30.13R
LAS CRUCES     MOSUNNY   74  63  67 SW5       30.14R
HOLLOMAN AFB   SUNNY     78  60  53 VRB6      30.07S
ALAMOGORDO     SUNNY     77  59  53 S9        30.10S
T OR C         PTSUNNY   73  62  68 CALM      30.13R

$$
NMZ519>523-051600-
CENTRAL VALLEYS/CENTRAL HIGHLANDS

CITY           SKY/WX    TMP DP  RH WIND       PRES   REMARKS
ALBUQUERQUE    PTSUNNY   73  57  57 SW6       30.16S
DOUBLE EAGLE   PTSUNNY   73  57  56 VRB6      30.20R
MORIARTY ARPT    N/A     71  55  56 S3        30.22S
CLINES CORNERS MOSUNNY   70  53  54 W12       30.25R
BELEN          FAIR      76  55  48 S3        30.15S
SOCORRO        FAIR      74  59  58 SE7       30.13S

$$
NMZ524>526-539-540-051600-
SOUTHCENTRAL MOUNTAINS

CITY           SKY/WX    TMP DP  RH WIND       PRES   REMARKS
RUIDOSO        PTSUNNY   72  54  53 SW3       30.28R

$$
NMZ527>531-051600-
NORTHEAST HIGHLANDS/NORTHEAST PLAINS

CITY           SKY/WX    TMP DP  RH WIND       PRES   REMARKS
LAS VEGAS      SUNNY     69  56  62 VRB3      30.21R
RATON          SUNNY     67  56  67 SW3       30.14F
CLAYTON        SUNNY     80  58  46 S23G30    30.06S

$$
NMZ532>537-051600-
EASTCENTRAL PLAINS

CITY           SKY/WX    TMP DP  RH WIND       PRES   REMARKS
TUCUMCARI      SUNNY     81  62  52 SW16G26   30.03F
CANNON AFB     SUNNY     77  64  65 S8        30.09S
CLOVIS AIRPORT SUNNY     75  63  64 S13         N/A

$$
NMZ028-029-538-051600-
SOUTHEAST PLAINS

CITY           SKY/WX    TMP DP  RH WIND       PRES   REMARKS
ROSWELL        MOSUNNY   78  63  59 S10       30.05S
ARTESIA        MOSUNNY   77  66  69 S13       30.06S
CARLSBAD       MOSUNNY   78  65  63 SE10      30.04R
HOBBS          MOSUNNY   75  66  73 SE9       30.09R


$$


USA.gov is the U.S. government's official web portal to all federal, state and local government web resources and services.